User: anonymous   Login
Location: Tyler Bend Campground
(35.9875°N, 92.7606°W)
Time: 13:10:21
(UTC-05:00)
Language:

CZ-2C R/B - Orbit

View from above orbital plane
View from above orbital plane
View from above satellite
View from above satellite

Ground track
Ground track

The orbit data is extracted from the following two-line orbital elements,

1 36089U 09061B   15243.70382745  .00000033  00000-0  19847-4 0  9992
2 36089  98.0684 263.5576 0080893 264.0820 209.2038 14.49480825306746
Epoch (UTC): 31 August 2015 16:53:30
Eccentricity: 0.0080893
inclination: 98.0684°
perigee height: 670 km
apogee height: 785 km
right ascension of ascending node: 263.5576°
argument of perigee: 264.0820°
revolutions per day: 14.49480825
mean anomaly at epoch: 209.2038°
orbit number at epoch: 30674

The dashed part of the orbit path shows where the satellite is in the earth's shadow,  

DLR